カタログに戻る

METEOR 1-10

運用中気象PO
NORAD 5731·PAYLOAD·🇷🇺 Russia

打ち上げ Dec 29, 1971 から Plesetsk Cosmodrome

Loading…

次のパス (今後24時間)

TLE

最新Source: Space-Track

元期: Sep 14, 2026, 01:38 UTC

1 05731U 71120A   26257.06807067  .00000167  00000-0  84261-4 0  9992
2 05731  81.2573 293.7629 0023886 161.7337 198.4699 14.11897020808653

AllMySatでMETEOR 1-10をリアルタイム追跡

Download on the App Store